Miscellaneous Local Product
Issued by NWS North Platte, NE

Home | Current Version | Previous Version | Text Only | Print | Product List | Glossary On
Versions: 1 2 3 4 5 6 7 8 9 10 11 12 13 14 15 16 17 18 19 20 21 22 23 24 25 26 27 28 29 30 31 32 33 34 35 36 37 38 39 40 41 42 43 44 45 46 47 48 49 50
000
AXUS43 KLBF 260010
MISLBF


WESTERN AND NORTH CENTRAL NEBRASKA HOURLY WEATHER ROUNDUP
NATIONAL WEATHER SERVICE NORTH PLATTE NE
600 PM CST THU DEC 25 2014

***STATIONS NOT REPORTING VARIABLES SUCH AS SKY/WEATHER OR
PRESSURE ARE PROVIDED BY THE NEBRASKA DEPARTMENT OF
ROADS...RAWS...AND APRS NETWORKS...AND ARE NOT UNDER
NATIONAL WEATHER SERVICE QUALITY CONTROL***

...OBSERVATIONS IN AND NEAR THE EASTERN PANHANDLE OF NEBRASKA...

CITY           SKY/WX    TMP DP  RH WIND       PRES   REMARKS
PINE RIDGE     LGT SNOW  25  20  81 N16       29.82R WCI  12
CHADRON        LGT SNOW  25  21  85 NE15      29.83R FOG     WCI  13
ALLIANCE       LGT SNOW  26  24  92 N26G35    29.72R FOG     WCI  10
SIDNEY         LGT SNOW  26  24  92 N18       29.71R VSB 1   WCI  13
WHITECLAY        N/A     24  21  89 SW13        N/A  WCI  12
LISCO            N/A     29  24  79 S16         N/A  WCI  18
BIG SPRINGS      N/A     31  28  86 NE17        N/A  WCI  20
$$

...OBSERVATIONS IN NORTH CENTRAL NEBRASKA...

CITY           SKY/WX    TMP DP  RH WIND       PRES   REMARKS
VALENTINE      CLOUDY    28  25  88 N16G22    29.79R WCI  16
THEDFORD       MIX PCPN  30  28  94 N20G26    29.72R WCI  17
AINSWORTH      LGT SNOW  28  27  97 N16G23    29.75R VSB 1   WCI  16
O`NEILL        CLOUDY    32  31  94 N15       29.72R WCI  22
ORD            CLOUDY    32  27  81 N17       29.66R WCI  21
BROKEN BOW     CLOUDY    31  27  85 N20       29.66R WCI  19
BROWNLEE         N/A     27  26  96 N17         N/A  WCI  15
SPRINGVIEW       N/A     28  26  90 NE6G16      N/A  WCI  22
BREWSTER         N/A     33  31  94 NE17        N/A  WCI  21
ROSE             N/A     32  32  99 N16         N/A  WCI  22
SARGENT          N/A     31  28  89 N7G20       N/A  WCI  24
COMSTOCK         N/A     36  31  83 N14         N/A  WCI  27
CHAMBERS         N/A     31  29  91 N5G15       N/A  WCI  26
EWING            N/A     33  30  90 CALM        N/A
$$

...OBSERVATIONS IN SOUTHWEST NEBRASKA AND FAR NORTHEAST COLORADO...

CITY           SKY/WX    TMP DP  RH WIND       PRES   REMARKS
WRAY           CLOUDY    34  28  81 N22G28    29.62R WCI  22
HOLYOKE        CLOUDY    34  30  86 NE23      29.66R WCI  22
IMPERIAL       CLOUDY    31  26  82 N22G28    29.66R WCI  18
OGALLALA       CLOUDY    31  28  88 NE24      29.69R WCI  17
NORTH PLATTE   CLOUDY    31  25  78 NE17G32   29.68R WCI  19
MCCOOK         PTCLDY    34  27  75 N15       29.62R WCI  24
LEXINGTON      PTCLDY    32  28  85 N16       29.63R WCI  21
PAXTON           N/A     31  28  89 N14         N/A  WCI  21
BRADY            N/A     31  26  80 MISG        N/A
GOTHENBURG       N/A     31  25  79 N12         N/A  WCI  22
CALLAWAY         N/A     29  26  89 N14         N/A  WCI  18
$$

...NORTH PLATTE AREA...

CITY           SKY/WX    TMP DP  RH WIND       PRES   REMARKS
AIRPORT        CLOUDY    31  25  78 NE17G32   29.68R WCI  19
DOWNTOWN         N/A     30  26  83 NE9G17      N/A  WCI  22
$$

...SOME WEATHER OBSERVATIONS FROM AROUND THE REGION...

CITY           SKY/WX    TMP DP  RH WIND       PRES   REMARKS
DENVER         SNOW      27  25  92 N22       29.63R VSB 1/2 WCI  13
LARAMIE        LGT SNOW  18  14  84 NE16      29.62R VSB 3/4 WCI   3
CHEYENNE       FOG       21  18  88 N17G29    29.64R VSB 1/2 WCI   7
SCOTTSBLUFF    LGT SNOW  26  22  84 N12       29.77R FOG     WCI  16
RAPID CITY     CLOUDY    25  21  85 N20       29.87R WCI  11
PIERRE         CLOUDY    28  24  85 N15       29.85R WCI  16
WINNER         LGT SNOW  28  25  88 N15       29.83R FOG     WCI  16
SIOUX FALLS    DRIZZLE   32  30  92 NE14      29.76R FOG     WCI  22
OMAHA          PTCLDY    41  31  67 SE8       29.66R
GRAND ISLAND   CLEAR     31  24  75 N9        29.62R WCI  23
KANSAS CITY    CLOUDY    50  29  44 S21       29.70R
WICHITA        CLOUDY    52  28  39 S25G32    29.67R
HAYS           MOCLDY    50  25  37 SE5       29.54R
LIBERAL        CLOUDY    48  18  29 S12       29.59R
GOODLAND       CLEAR     33  28  81 N12       29.59R WCI  24
$$



USA.gov is the U.S. government's official web portal to all federal, state and local government web resources and services.